Date,TemperatureHighF,TemperatureAvgF,TemperatureLowF,DewpointHighF,DewpointAvgF,DewpointLowF,HumidityHigh,HumidityAvg,HumidityLow,PressureMaxIn,PressureMinIn,WindSpeedMaxMPH,WindSpeedAvgMPH,GustSpeedMaxMPH,PrecipitationSumIn
2013-8-1,87.7,77.0,72.0,80.0,75.0,71.0,98,94,76,29.99,29.89,5,0,11,0.55
2013-8-2,94.3,81.2,70.6,81.0,76.1,70.0,98,86,57,30.00,29.90,4,0,6,0.00
2013-8-3,93.7,82.3,72.8,81.0,76.1,72.0,98,83,57,30.04,29.95,4,0,8,0.00
2013-8-4,94.7,81.6,74.0,81.0,76.9,73.0,98,87,60,30.03,29.92,5,0,12,0.19
2013-8-5,92.0,80.8,72.9,79.0,75.1,72.0,98,84,59,30.01,29.92,7,1,9,0.01
2013-8-6,93.4,79.9,71.2,80.0,74.8,71.0,98,86,61,29.99,29.89,25,1,25,0.53
2013-8-7,92.8,80.6,70.5,81.0,75.8,70.0,98,86,60,29.97,29.88,3,0,9,0.00
2013-8-8,92.6,79.3,72.9,80.0,75.4,72.0,97,89,63,29.98,29.91,6,0,9,0.36
2013-8-9,93.2,79.6,73.4,81.0,75.8,72.0,98,89,61,30.05,29.94,5,1,16,0.75
2013-8-10,92.0,77.8,71.4,80.0,74.6,71.0,98,90,63,30.09,30.01,6,1,24,0.24
2013-8-11,94.9,80.1,70.8,80.0,74.8,70.0,98,86,54,30.13,30.04,3,0,6,0.00
2013-8-12,94.5,78.6,71.4,80.0,74.4,71.0,98,88,56,30.10,30.00,7,0,14,1.86
2013-8-13,92.0,78.4,72.2,81.0,75.6,72.0,99,91,67,30.01,29.90,7,0,8,0.00
2013-8-14,90.0,77.5,73.1,80.0,74.8,72.0,98,92,66,29.93,29.85,5,0,9,3.78
2013-8-15,87.2,76.4,72.7,79.0,74.5,72.0,98,94,72,29.95,29.88,7,0,10,1.00
2013-8-16,80.7,74.6,70.3,76.0,72.4,70.0,98,93,82,30.00,29.91,5,1,8,0.00
2013-8-17,72.6,70.9,69.6,72.0,70.2,69.0,98,97,96,30.03,29.95,4,1,8,1.45
2013-8-18,82.4,73.0,69.4,79.0,72.0,69.0,98,97,87,30.07,30.01,9,1,14,0.49
2013-8-19,89.9,76.7,69.5,80.0,74.0,69.0,98,92,71,30.05,29.95,4,1,8,0.37
2013-8-20,85.7,74.6,70.6,79.0,72.7,70.0,98,94,77,30.10,29.98,4,1,8,0.02
2013-8-21,90.7,76.8,69.9,80.0,73.1,69.0,98,89,63,30.14,30.04,6,0,14,0.02
2013-8-22,88.6,76.8,70.2,78.0,73.4,69.0,97,90,67,30.10,29.98,5,1,20,0.19
2013-8-23,88.1,77.1,69.3,78.0,72.7,69.0,98,87,67,30.02,29.95,5,1,8,0.01
2013-8-24,89.7,77.9,69.3,79.0,72.7,68.0,98,85,63,30.16,29.99,11,1,17,1.08
2013-8-25,85.5,76.1,69.0,77.0,71.9,67.0,97,87,71,30.20,30.12,7,1,11,0.13
2013-8-26,85.4,74.5,65.0,70.0,65.7,63.0,95,76,50,30.20,30.09,5,1,11,0.00
2013-8-27,88.8,74.8,63.9,73.0,67.6,63.0,97,80,53,30.11,30.00,3,0,8,0.00
2013-8-28,89.4,76.6,66.2,75.0,69.6,65.0,97,81,53,30.06,29.97,3,0,7,0.00
2013-8-29,92.0,77.8,66.1,77.0,71.7,65.0,98,83,56,30.04,29.93,4,0,8,0.00
2013-8-30,92.9,80.7,71.2,80.0,75.1,70.0,97,84,59,29.98,29.86,4,0,11,0.00
2013-8-31,93.1,80.7,73.5,79.0,76.1,73.0,97,86,62,29.92,29.83,4,0,7,0.01